This is the latest recevied weather packets stored in our database for station/object E22ZMG-2. If no packets are shown the sender has not sent any weather packets the latest 10 day(s).
| Time | Temp. | Humidity | Pressure | Rain* | Wind** | Luminosity | Snow |
|---|---|---|---|---|---|---|---|
| 1777028137 | 35° C | 42% | 922 hPa | - | - | 0 W/m² | - |
| 1777027513 | 35.56° C | 41% | 922 hPa | - | - | 0 W/m² | - |
| 1777026889 | 35.56° C | 40% | 922 hPa | - | - | 0 W/m² | - |
| 1777026265 | 35.56° C | 42% | 922 hPa | - | - | 0 W/m² | - |
| 1777025641 | 35.56° C | 42% | 922 hPa | - | - | 0 W/m² | - |
| 1777025017 | 35.56° C | 43% | 922 hPa | - | - | 0 W/m² | - |
| 1777024393 | 35.56° C | 43% | 922 hPa | - | - | 0 W/m² | - |
| 1777023769 | 35.56° C | 44% | 921 hPa | - | - | 0 W/m² | - |
| 1777023145 | 35° C | 43% | 922 hPa | - | - | 0 W/m² | - |
| 1777022521 | 35.56° C | 42% | 922 hPa | - | - | 0 W/m² | - |
| 1777021896 | 35.56° C | 42% | 922 hPa | - | - | 0 W/m² | - |
| 1777021272 | 35° C | 43% | 922 hPa | - | - | 0 W/m² | - |
| 1777020648 | 35.56° C | 43% | 922 hPa | - | - | 0 W/m² | - |
| 1777020024 | 35° C | 43% | 922 hPa | - | - | 0 W/m² | - |
| 1777019400 | 35° C | 42% | 922 hPa | - | - | 0 W/m² | - |
| 1777018776 | 35° C | 40% | 922 hPa | - | - | 0 W/m² | - |
| 1777018152 | 35.56° C | 37% | 922 hPa | - | - | 0 W/m² | - |
| 1777017528 | 35.56° C | 38% | 922 hPa | - | - | 0 W/m² | - |
| 1777016904 | 35.56° C | 36% | 922 hPa | - | - | 0 W/m² | - |
| 1776999175 | 31.67° C | 54% | 926 hPa | - | - | 0 W/m² | - |
| 1776998551 | 31.11° C | 55% | 926 hPa | - | - | 0 W/m² | - |
| 1776997927 | 30.56° C | 56% | 926 hPa | - | - | 0 W/m² | - |
| 1776997303 | 30.56° C | 57% | 926 hPa | - | - | 0 W/m² | - |
| 1776996536 | 30.56° C | 58% | 926 hPa | - | - | 0 W/m² | - |
| 1776995911 | 30° C | 59% | 926 hPa | - | - | 0 W/m² | - |
* Rain since midnight (hover to see other rain measurements)
** Current wind speed in m/s (hover to see current wind gust speed)